Home   Weather   Linden   Past weeks

Flag for Guyana Past Weather in Linden, Guyana — Yesterday and Last 2 Weeks

Now
72 °F

Fog.


Feels Like: 65 °F
Forecast: 72 / 85 °F
Wind: No wind

Location: Georgetown/Cheddi Jagan International Airport

Current Time: Dec 3, 2016 at 3:06:20 am

Latest Report: Dec 3, 2016 at 2:00 am


Visibility: 1 mi

Pressure: 29.83 "Hg

Humidity: 100%

Dew Point: 72 °F

Location of LindenLocation

Past Weather in Linden — Graph

°F

Linden Temperature Yesterday

Maximum temperature yesterday: 90 °F (at 2:00 pm)
Minimum temperature yesterday: 75 °F (at 4:00 am)
Average temperature yesterday: 81 °F

High & Low Weather Summary for the Past Weeks

 TemperatureHumidityPressure
High93 °F (Nov 29, 2:00 pm)100% (Nov 18, 1:00 am)29.95 "Hg (Nov 18, 1:00 am)
Low72 °F (Nov 25, 6:00 am)49% (Nov 30, 2:00 pm)29.68 "Hg (Nov 21, 3:00 pm)
Average81 °F84%29.81 "Hg
* Reported Nov 18 12:00 am — Dec 3 12:00 am, Linden, Weather by CustomWeather, © 2016

Note: Actual official high and low records may vary slightly from our data, if they occured in-between our weather recording intervals... More about our weather records

Advertising

Linden Weather History for the Previous 24 Hours

Scroll right to see more
 ConditionsComfort  
Time TempWeatherWind HumidityBarometerVisibility
12:00 am
Sat, Dec 3
73 °FClear.No wind100%29.86 "Hg10 mi
11:00 pm
Fri, Dec 2
75 °FClear.No wind100%29.89 "Hg10 mi
10:00 pm77 °FPassing clouds.No wind94%29.89 "HgN/A
9:00 pm77 °FPassing clouds.5 mph94%29.89 "HgN/A
8:00 pm77 °FPassing clouds.5 mph94%29.89 "HgN/A
7:00 pm79 °FPassing clouds.5 mph94%29.86 "HgN/A
6:00 pm82 °FPassing clouds.9 mph79%29.83 "HgN/A
5:00 pm84 °FScattered clouds.9 mph74%29.83 "HgN/A
4:00 pm86 °FBroken clouds.14 mph70%29.83 "HgN/A
3:00 pm86 °FPartly sunny.12 mph70%29.83 "HgN/A
2:00 pm90 °FPartly sunny.14 mph63%29.83 "HgN/A
12:00 pm88 °FPartly sunny.7 mph70%29.89 "HgN/A
11:00 am88 °FSprinkles. Broken clouds.9 mph70%29.92 "HgN/A
10:00 am88 °FBroken clouds.7 mph70%29.95 "HgN/A
9:00 am86 °FBroken clouds.5 mph75%29.95 "HgN/A
8:00 am79 °FBroken clouds.5 mph94%29.92 "HgN/A
7:00 am77 °FBroken clouds.5 mph94%29.92 "HgN/A
6:00 am75 °FThunderstorms. Broken clouds.5 mph100%29.89 "HgN/A
5:00 am75 °FPartly cloudy.5 mph100%29.89 "HgN/A
4:00 am75 °FPartly cloudy.5 mph100%29.86 "HgN/A
3:00 am77 °FPartly cloudy.5 mph94%29.86 "HgN/A
Weather by CustomWeather, © 2016

See weather overviewHow to use our weather pages